Wind_Speed
17 17 17 17 17 17 16 15 15 15 15 17 17 18 19 21 22 16 6 6 5 5 8 9 9 8 7 3 4 1 2 8 7 11 9 14 7 14 10 9 8 6 3 7 15
18 18 18 18 18 18 16 15 15 15 16 17 18 19 20 21 19 10 7 8 8 8 5 3 4 3 3 5 4 5 5 8 6 10 9 14 18 18 17 21 14 9 9 13 28
20 20 20 20 20 19 17 16 15 15 16 18 19 19 19 16 4 5 9 6 5 4 6 3 6 2 4 4 5 4 11 6 7 6 8 16 22 17 15 18 15 3 8 7 6
23 22 22 22 21 20 18 16 16 16 18 20 19 15 14 1 2 5 5 4 4 3 2 2 3 2 2 5 4 8 10 7 9 13 13 19 20 20 17 20 19 11 7 3 0
24 24 25 24 22 20 18 17 16 17 18 18 15 9 3 1 7 7 3 5 7 6 6 4 2 3 3 4 4 8 10 10 11 13 13 14 21 22 26 21 19 20 9 4 5
25 26 26 26 25 22 19 18 17 16 16 15 10 5 1 3 3 4 4 8 11 9 6 6 3 4 1 2 1 5 5 10 7 10 8 14 19 16 28 19 17 20 15 7 6
28 28 28 28 28 24 20 18 17 14 14 11 7 1 2 10 4 6 8 9 11 16 3 7 1 4 2 8 3 6 7 8 5 3 5 6 18 21 15 11 16 17 18 13 9
30 31 31 30 28 25 21 18 16 15 13 6 4 2 6 7 6 2 4 8 8 2 8 11 8 4 3 2 7 5 1 1 3 6 5 7 23 19 12 13 20 15 16 19 11
32 35 32 30 28 24 21 16 17 15 6 3 1 2 8 8 3 2 3 5 6 9 12 12 6 4 2 2 4 3 4 4 5 6 6 7 17 6 9 10 17 18 15 13 17
33 37 33 31 26 23 18 17 7 3 4 2 3 2 7 2 5 3 6 6 4 6 5 0 3 2 2 3 4 6 6 4 3 3 2 9 15 6 7 8 8 9 12 16 17
34 37 34 30 22 19 17 3 5 4 2 6 4 4 11 3 2 4 8 1 4 4 2 3 3 4 8 9 11 7 7 6 4 5 4 8 16 13 6 6 9 11 12 13 14
35 37 33 28 20 12 9 1 2 5 7 9 12 11 22 16 1 6 4 3 2 4 5 7 3 3 5 6 6 7 5 7 4 9 11 9 20 18 11 6 8 11 13 9 12
36 35 32 22 14 6 5 9 5 9 2 7 5 5 7 8 7 8 4 4 3 1 5 2 9 9 7 7 6 5 4 6 7 11 5 6 19 12 11 7 8 8 8 9 10
36 34 29 19 3 13 5 8 10 3 3 4 3 4 4 2 4 9 9 5 1 5 4 6 7 4 6 4 3 2 6 9 11 8 3 4 13 14 14 11 8 9 9 10 13
36 32 24 7 10 5 17 16 12 3 4 7 4 4 3 4 2 4 12 3 6 7 5 10 5 8 4 2 1 4 3 4 5 8 2 5 6 9 14 19 18 15 14 17 16
38 26 17 3 8 10 19 16 5 4 1 1 3 4 1 5 7 3 5 2 4 4 4 11 5 3 2 1 1 2 4 6 5 1 5 6 7 21 9 13 13 13 16 15 15
33 14 7 4 4 15 18 4 4 4 7 7 6 6 6 5 6 1 5 4 2 3 4 5 2 3 3 2 4 5 4 4 4 2 5 1 6 13 12 15 18 8 10 11 14
24 8 3 5 9 14 8 4 6 7 8 6 6 9 2 12 7 8 6 2 6 2 3 1 5 4 5 2 5 4 6 4 4 4 11 17 8 8 8 10 1 2 5 9 12
17 5 3 1 5 8 5 5 2 5 7 6 6 3 5 9 6 8 7 5 4 4 2 2 4 5 9 8 1 2 3 6 3 8 5 8 13 11 3 6 10 9 9 11 13
11 6 5 2 4 6 5 2 2 2 4 3 3 4 5 8 7 6 5 2 2 5 2 3 6 7 3 4 2 4 3 2 1 3 5 4 8 8 7 10 9 11 9 11 13
4 3 3 3 4 5 3 4 5 10 6 2 2 5 4 2 4 5 3 10 3 2 5 3 2 4 3 3 3 4 2 2 1 2 3 5 6 6 10 9 8 13 13 14 12
5 2 1 3 4 1 1 3 6 7 1 2 1 3 1 4 4 4 6 4 4 3 2 2 1 4 8 18 12 10 5 4 3 5 3 5 9 9 6 6 8 11 15 15 11
3 3 2 1 2 3 5 5 3 7 4 5 5 5 5 4 2 4 6 5 5 5 5 4 2 4 8 5 5 1 4 4 3 3 6 7 7 4 7 10 6 10 11 11 13
2 4 4 4 1 2 5 5 5 7 4 4 4 5 5 3 3 5 8 4 4 5 11 8 5 8 8 9 4 12 18 17 12 5 11 13 22 14 11 11 5 9 10 12 13
4 2 1 4 3 6 2 4 9 5 6 4 4 2 3 4 4 5 4 6 7 9 5 7 7 6 12 17 16 21 21 19 18 17 10 14 8 6 9 14 6 8 5 18 11
2 3 4 3 5 5 3 2 5 9 5 7 3 7 4 4 8 14 11 4 7 7 7 3 5 4 15 15 15 15 19 12 7 8 12 11 11 3 11 9 8 11 13 15 14
6 5 3 4 4 3 2 4 8 9 7 8 6 6 6 7 13 12 11 10 11 11 10 7 5 1 17 6 11 10 3 1 3 8 6 6 2 8 11 13 14 13 17 12 12
Wind_Direction
348 344 340 338 334 333 331 328 326 327 330 333 337 335 337 333 323 318 256 249 239 277 280 287 287 257 256 233 235 76 170 226 224 240 260 299 309 302 319 344 332 312 224 227 163
349 347 343 339 334 331 330 327 327 326 327 330 332 334 334 332 326 270 237 225 244 255 268 258 241 8 243 197 237 183 189 222 230 237 288 299 298 302 321 318 314 349 6 15 135
346 345 344 340 335 331 329 328 327 326 326 328 327 329 333 332 321 254 188 216 241 262 255 264 274 231 203 227 223 225 238 246 261 275 275 282 286 302 310 299 295 309 317 18 51
344 343 340 338 334 330 326 324 323 324 327 329 325 325 337 351 118 243 226 190 201 210 224 240 248 202 221 227 228 255 264 256 257 259 262 274 288 284 284 273 283 291 265 269 126
343 340 338 336 333 329 323 318 316 319 326 332 334 337 5 302 251 209 210 205 229 249 216 199 242 214 213 237 299 257 274 267 264 260 252 257 266 275 282 278 289 289 276 229 288
341 339 337 334 331 325 320 313 309 318 328 336 341 350 137 292 230 224 261 229 230 227 264 179 234 253 203 318 320 306 316 288 266 277 283 267 265 267 269 278 281 288 287 241 228
345 342 339 334 328 323 317 307 304 314 324 333 340 15 286 237 214 272 257 272 279 215 209 271 160 67 21 332 329 286 304 313 286 266 262 282 279 256 271 300 280 275 291 289 218
350 345 340 334 329 323 315 306 305 308 309 311 326 183 247 257 304 355 323 315 27 242 233 278 238 162 165 269 334 323 263 351 320 351 276 176 259 269 282 288 283 287 275 272 276
350 348 341 334 331 326 315 313 309 303 296 269 236 173 271 335 213 326 253 282 319 300 282 279 140 196 359 68 350 319 254 267 300 241 247 216 274 326 316 283 275 276 273 277 281
347 346 341 337 335 329 321 321 341 5 95 97 262 309 277 280 168 268 297 275 261 297 312 266 92 153 23 83 247 260 266 249 227 302 4 294 293 279 295 299 302 317 316 297 276
346 345 342 339 340 333 339 17 11 5 95 222 224 254 297 310 36 298 300 175 352 39 352 305 81 240 249 220 242 264 280 290 278 238 302 282 283 287 282 298 302 300 296 296 301
345 345 342 338 338 334 329 317 244 260 306 252 241 252 262 263 284 295 311 123 360 308 357 8 290 228 286 308 315 321 319 321 293 316 312 287 283 288 287 262 274 281 285 276 294
344 345 343 336 334 349 306 278 11 6 3 300 221 213 230 178 218 242 165 176 185 323 324 214 260 298 310 313 351 5 21 342 318 327 331 303 289 299 298 287 285 278 271 288 279
344 345 342 338 359 334 273 350 344 357 60 268 194 243 166 175 263 226 206 153 183 217 272 261 260 277 302 276 48 358 336 343 329 335 284 14 288 298 303 295 292 298 307 290 295
344 343 335 339 312 329 333 338 340 51 55 179 174 182 227 179 286 208 177 127 197 217 130 250 271 283 290 55 67 220 359 333 287 280 259 232 271 278 308 295 292 293 290 291 288
341 345 329 331 314 345 344 332 2 45 31 90 70 8 320 219 255 206 188 161 207 201 220 239 269 115 128 325 82 58 10 352 318 227 244 216 216 279 268 274 280 295 290 307 328
343 352 313 286 289 343 338 27 51 71 325 6 5 335 322 306 283 305 198 241 27 334 356 343 4 104 118 355 339 77 54 340 333 334 239 8 302 271 273 275 292 324 335 320 319
347 9 353 281 343 335 337 57 69 351 26 30 346 313 6 14 2 353 357 40 47 58 89 86 323 16 2 233 259 234 171 165 270 271 299 298 251 260 297 311 288 336 294 305 318
354 359 354 305 329 329 62 50 146 10 4 353 345 349 353 9 352 17 15 66 44 36 96 307 263 307 286 291 351 264 160 209 214 249 256 264 267 280 318 345 326 314 320 313 312
346 346 296 221 322 39 69 283 295 346 327 18 40 34 342 335 16 24 317 138 93 65 126 313 289 237 286 323 295 162 210 307 312 265 256 262 280 256 311 299 285 309 295 296 300
29 24 259 290 330 47 108 251 304 327 320 157 255 268 268 349 339 329 280 317 113 41 73 42 171 276 335 254 202 323 286 85 172 176 242 310 258 217 236 248 296 305 292 284 292
355 47 350 295 43 66 246 278 310 319 308 56 64 44 321 294 266 270 253 238 102 142 118 213 221 285 265 276 259 244 207 155 130 285 263 267 271 252 238 285 266 298 292 298 305
344 275 23 2 49 335 310 304 257 320 300 219 218 221 251 241 289 269 300 284 217 167 188 177 254 311 317 354 13 182 197 220 234 194 221 263 268 320 258 254 282 282 296 313 301
11 2 330 29 70 39 353 286 313 318 296 38 5 6 8 304 211 233 283 270 292 234 190 167 193 198 241 261 253 278 275 274 261 240 275 254 280 294 290 289 268 291 323 306 306
28 342 228 308 324 329 233 271 307 326 9 26 329 345 311 310 314 253 306 307 321 279 178 148 221 231 246 263 276 276 282 282 264 262 241 291 267 325 321 296 247 267 326 298 315
58 20 346 289 298 313 321 297 316 333 331 301 272 288 276 234 224 276 277 250 230 279 205 199 254 237 272 277 265 287 295 288 293 319 295 303 286 346 325 339 296 303 299 301 318
358 333 96 285 314 318 222 355 306 317 291 340 338 319 300 303 309 275 259 243 236 240 240 217 229 241 272 339 321 297 204 53 275 239 250 271 265 325 309 306 303 312 307 332 348
Height
821 818 815 812 808 805 802 800 797 795 793 791 789 788 784 781 777 774 771 765 765 765 765 765 765 764 766 764 762 759 786 787 775 770 754 737 746 729 727 729 726 715 709 703 702
819 816 813 809 806 803 800 798 795 793 791 789 787 785 782 779 775 772 763 762 762 763 764 764 762 763 766 763 764 768 784 775 757 752 753 743 742 736 738 732 727 726 710 709 699
819 815 811 807 804 801 798 795 793 791 789 787 785 783 780 778 777 764 761 761 761 761 761 762 761 763 766 762 763 760 764 756 753 750 749 745 737 734 741 740 728 733 720 712 711
817 813 809 805 802 798 795 792 790 788 786 785 782 781 778 777 778 761 760 759 761 762 763 762 763 764 764 767 758 767 754 752 750 747 749 748 738 738 737 730 719 720 718 717 711
816 812 807 803 799 795 792 790 788 786 784 782 780 779 778 779 770 759 758 759 760 760 760 762 764 764 768 762 758 761 754 748 745 744 743 743 741 735 726 717 713 708 715 714 714
814 810 805 800 796 791 788 786 784 784 782 780 779 778 778 778 758 757 757 758 758 758 756 758 758 756 759 759 763 754 754 752 746 745 742 745 738 734 714 713 714 707 707 707 707
812 807 803 797 792 787 784 781 780 781 780 779 778 777 777 768 756 757 757 755 755 754 755 753 754 756 759 763 754 755 760 753 746 743 744 738 739 728 717 714 713 709 700 698 703
811 806 800 795 789 783 780 777 776 777 777 777 777 777 773 756 756 756 755 753 752 753 753 751 752 755 759 757 759 762 761 771 748 743 737 741 736 719 716 718 714 710 704 700 697
809 803 797 791 786 780 776 774 773 771 773 774 776 776 769 756 755 754 753 754 752 751 750 749 751 757 758 769 780 769 776 766 758 740 740 740 734 726 720 719 715 708 705 699 691
807 801 794 788 783 778 774 771 770 769 771 773 774 778 761 755 753 752 752 752 751 750 750 750 759 767 774 781 790 775 772 765 759 745 741 744 736 730 725 722 722 716 710 702 692
805 798 791 785 781 777 774 771 773 774 770 769 766 763 757 753 752 751 751 750 751 754 763 755 769 777 771 769 761 761 761 764 753 742 742 744 735 727 723 722 723 717 713 708 703
803 795 788 783 780 777 776 776 772 773 774 760 758 760 755 754 755 750 749 754 756 767 761 769 774 757 753 752 755 757 761 763 749 741 742 743 728 718 719 720 718 715 711 707 700
800 793 785 780 778 777 777 774 773 770 778 761 752 753 751 750 755 753 749 750 757 763 765 772 763 750 751 755 756 759 764 765 763 750 745 745 730 727 718 714 710 707 706 702 700
798 791 785 778 780 778 775 773 771 769 787 766 754 749 747 747 755 743 744 750 756 764 762 766 751 752 755 754 755 767 756 758 759 764 774 750 754 730 721 718 713 709 707 704 696
794 788 783 781 779 778 776 771 770 770 800 757 753 743 744 752 746 744 740 745 758 757 761 764 755 758 759 757 754 763 755 762 758 762 763 755 767 728 723 716 710 704 700 694 690
790 785 781 780 778 776 772 769 769 790 788 758 751 754 755 750 746 741 742 740 740 752 753 754 743 748 753 751 750 754 761 763 764 764 773 754 756 719 728 717 706 700 694 692 690
784 781 780 780 778 775 770 768 790 795 757 768 766 758 758 755 747 743 746 749 762 764 767 757 753 752 751 758 754 761 773 801 792 779 768 743 749 730 714 708 704 706 705 700 694
781 779 778 778 777 775 771 781 790 771 772 762 765 760 763 758 754 752 753 762 758 763 775 778 777 758 752 758 762 763 770 792 777 775 761 742 748 726 709 705 705 703 701 693 688
781 780 779 777 776 775 781 797 796 776 770 771 766 768 771 765 764 762 766 764 763 763 776 778 774 753 752 750 754 758 768 760 770 763 772 746 728 714 709 708 704 698 694 689 681
784 782 778 778 777 776 792 791 779 768 766 768 778 772 781 774 773 772 767 758 760 761 763 768 778 754 749 749 748 752 751 768 780 771 763 743 732 723 715 709 705 696 692 683 673
786 787 778 778 778 786 804 791 776 765 763 770 773 776 774 775 774 774 766 759 757 761 762 771 774 765 758 755 756 761 760 764 770 774 780 744 741 718 711 704 705 696 688 681 671
791 792 779 779 792 797 793 782 776 768 762 765 767 770 772 772 773 771 768 762 755 759 766 767 777 782 760 744 745 751 755 762 783 769 755 749 727 699 703 700 697 692 688 679 673
804 796 781 781 805 803 789 780 774 770 766 764 767 765 765 770 776 767 762 753 753 756 764 764 780 779 761 752 748 747 750 749 754 753 756 746 721 698 702 696 696 695 687 678 672
805 805 795 791 795 794 798 787 777 766 766 767 769 766 771 770 766 768 765 755 753 752 749 757 774 772 773 757 758 753 744 741 745 748 734 725 708 703 698 691 691 691 679 673 665
810 813 810 812 803 803 797 789 784 778 770 769 770 770 774 776 772 766 762 758 754 750 752 760 765 764 755 749 745 738 733 728 726 722 730 713 712 706 698 690 686 686 676 668 662
819 820 816 814 805 800 794 787 785 779 779 774 771 769 769 775 772 768 762 761 761 752 755 762 763 755 745 740 736 730 723 714 710 716 716 717 712 705 696 688 684 682 673 670 663
818 818 818 814 808 803 799 795 790 787 775 771 773 774 769 766 762 755 751 749 746 748 751 757 759 758 740 737 735 733 721 721 718 716 719 715 707 706 697 690 682 681 674 674 672